Weather in Krasnodar

Russia / Krasnodar Krai     45°02′07″N   38°58′31″E
temp.,
°C
wind,
m/s
gust,
m/s
humid.,
%
clouds,
%
prec.,
mm/h
press.,
hPa
HPBL,
m
12 may, wed
wed1200:00+10ssw71575100 0.1 1015896
03:00+10ssw5126712 0.1 1015825
06:00+9ese587869 0.1 1016343
09:00+12ese566968 0.1 1016586
12:00+16ese465468 0.0 10151039
15:00+19e4453100 0.0 1014957
18:00+18ene2572100 0.0 1013282
21:00+14nne23856 0.0 101343
13 may, thu
thu1300:00+12ene11880 0.0 101225
03:00+11w01910 0.0 101211
06:00+11ese12900 0.0 101252
09:00+17ese11705 0.0 1013339
12:00+22e3354100 0.0 1012632
15:00+24e465298 0.0 1012816
18:00+23ene496983 0.0 1011536
21:00+19ene3108641 0.0 1011225
14 may, fri
fri1400:00+16ese35905 0.0 1010108
03:00+15ese23885 0.0 101034
06:00+15ese34810 0.0 101061
09:00+22e33575 0.0 1010203
12:00+27ene22445 0.0 1010434
15:00+29e23445 0.0 1010859
18:00+28ene23635 0.0 1009122
21:00+22wnw12810 0.0 101016
15 may, sat
sat1500:00+18w47800 0.0 1010157
03:00+16w36752 0.0 1012141
06:00+16wnw367553 0.0 1013147
09:00+21w23596 0.0 1014411
12:00+25wnw2250100 0.0 1014804
15:00+27nnw22475 0.0 10131080
18:00+25ne23605 0.0 1012449
21:00+19ne24855 0.3 101264
16 may, sun
sun1600:00+18ne22866 0.1 101144
03:00+17ne239299 0.1 101053
06:00+17e2594100 0.0 1009158
09:00+22e3582100 0.0 1008463
12:00+27ene5768100 0.0 1006940
15:00+28ene6862100 0.0 10041286
18:00+25ne5117399 0.0 1003545
21:00+22ene411886 0.0 1002316